This is the latest recevied weather packets stored in our database for station/object KA8DUX-2. If no packets are shown the sender has not sent any weather packets the latest 10 day(s).
| Time | Temp. | Humidity | Pressure | Rain* | Wind** | Luminosity | Snow |
|---|---|---|---|---|---|---|---|
| 1778108663 | 11.67° C | 43% | 1011.6 hPa | 0 mm | - | 68 W/m² | - |
| 1778108359 | 11.67° C | 42% | 1011.4 hPa | 0 mm | - | 70 W/m² | - |
| 1778108057 | 11.67° C | 41% | 1011.2 hPa | 0 mm | - | 74 W/m² | - |
| 1778107754 | 11.67° C | 40% | 1011.4 hPa | 0 mm | - | 94 W/m² | - |
| 1778107452 | 12.22° C | 40% | 1011.4 hPa | 0 mm | - | 95 W/m² | - |
| 1778107147 | 12.78° C | 39% | 1011.5 hPa | 0 mm | - | 116 W/m² | - |
| 1778106843 | 12.78° C | 39% | 1011.5 hPa | 0 mm | - | 169 W/m² | - |
| 1778106540 | 12.78° C | 40% | 1011.6 hPa | 0 mm | - | 119 W/m² | - |
| 1778106236 | 12.78° C | 39% | 1011.4 hPa | 0 mm | - | 262 W/m² | - |
| 1778105934 | 13.33° C | 38% | 1011.1 hPa | 0 mm | - | 210 W/m² | - |
| 1778105631 | 13.89° C | 38% | 1011.5 hPa | 0 mm | - | 210 W/m² | - |
| 1778105328 | 12.78° C | 39% | 1011.5 hPa | 0 mm | - | 185 W/m² | - |
| 1778105024 | 12.78° C | 39% | 1011.2 hPa | 0 mm | - | 159 W/m² | - |
| 1778104721 | 12.78° C | 41% | 1011.2 hPa | 0 mm | - | 130 W/m² | - |
| 1778104417 | 13.33° C | 39% | 1011.5 hPa | 0 mm | - | 118 W/m² | - |
| 1778104113 | 12.78° C | 39% | 1011.2 hPa | 0 mm | - | 215 W/m² | - |
| 1778103810 | 13.33° C | 39% | 1011.4 hPa | 0 mm | - | 119 W/m² | - |
| 1778103508 | 13.33° C | 38% | 1011.2 hPa | 0 mm | - | 173 W/m² | - |
| 1778103205 | 13.33° C | 38% | 1011.4 hPa | 0 mm | - | 194 W/m² | - |
| 1778102902 | 13.33° C | 38% | 1011.4 hPa | 0 mm | - | 190 W/m² | - |
| 1778102598 | 13.33° C | 39% | 1011.2 hPa | 0 mm | - | 150 W/m² | - |
| 1778102293 | 13.33° C | 38% | 1011.1 hPa | 0 mm | - | 253 W/m² | - |
| 1778101989 | 13.33° C | 37% | 1011.5 hPa | 0 mm | - | 205 W/m² | - |
| 1778101687 | 13.89° C | 39% | 1011.4 hPa | 0 mm | - | 330 W/m² | - |
| 1778101383 | 13.89° C | 37% | 1011.5 hPa | 0 mm | - | 450 W/m² | - |
* Rain latest hour (hover to see other rain measurements)
** Current wind speed in m/s (hover to see current wind gust speed)